[Iaude] MPEC L03: 2024 KP1 [a=1.77,e=0.52,i=24.7,H=19.9]

mpec at cfa.harvard.edu mpec at cfa.harvard.edu
Fri May 31 22:37:43 EDT 2024


M.P.E.C. 2024-L03                                  Issued 2024 June 1, 02:36 UT

     The Minor Planet Electronic Circulars contain information on unusual
         minor planets, routine data on comets and natural satellites,
         and occasional editorial announcements.  They are published
    on behalf of Division F of the International Astronomical Union by the
          Minor Planet Center, Smithsonian Astrophysical Observatory,
                          Cambridge, MA 02138, U.S.A.
			  
             Prepared using the Tamkin Foundation Computer Network

                              MPC at CFA.HARVARD.EDU
            URL https://www.minorplanetcenter.net/    ISSN 1523-6714

                                    2024 KP1                                    


Observations:
     K24K01P*1C2024 05 29.41339818 00 54.857+40 49 07.61         20.51GVEL003G96
     K24K01P 1C2024 05 29.41859318 00 54.904+40 49 24.13         20.79GVEL003G96
     K24K01P 1C2024 05 29.42377918 00 54.943+40 49 40.22         21.13GVEL003G96
     K24K01P 1C2024 05 29.42896518 00 54.947+40 49 56.17         21.28GVEL003G96
     K24K01P 1C2024 05 29.45281918 00 55.100+40 51 10.60         20.76GVEL003G96
     K24K01P 1C2024 05 29.45614818 00 55.150+40 51 21.40         20.64GVEL003G96
     K24K01P 1C2024 05 29.45947718 00 55.170+40 51 32.10         20.88GVEL003G96
     K24K01P 1C2024 05 29.46280618 00 55.170+40 51 41.50         20.95GVEL003G96
     K24K01P KB2024 05 29.94661 18 01 02.24 +41 16 59.5          19.8 RZEL003106
     K24K01P KB2024 05 29.95099 18 01 02.28 +41 17 11.5                ZEL003106
     K24K01P KB2024 05 29.95552 18 01 02.30 +41 17 27.2                ZEL003106
     K24K01P KB2024 05 29.96005 18 01 02.35 +41 17 41.8          20.9 RZEL003106
     K24K01P 7C2024 05 30.06133518 01 03.248+41 23 02.81         20.5 GVEL003Z84
     K24K01P 7C2024 05 30.07276318 01 03.302+41 23 38.70               VEL003Z84
     K24K01P KB2024 05 30.19380 18 01 05.525+41 29 54.96         20.8 GVEL003H36
     K24K01P KB2024 05 30.21226 18 01 05.640+41 30 54.07         21.1 GVEL003H36
     K24K01P  C2024 05 30.24194318 01 06.075+41 32 29.14         20.8 GVEL003H01
     K24K01P  C2024 05 30.24658818 01 06.103+41 32 43.99         20.7 GVEL003H01
     K24K01P  C2024 05 30.25755718 01 06.178+41 33 18.68         20.8 GVEL003H01
     K24K01P  C2024 05 30.26313218 01 06.209+41 33 36.35         20.5 GVEL003H01
     K24K01P KC2024 05 30.27143318 01 06.355+41 34 02.68         21.30GVEL003I52
     K24K01P KC2024 05 30.27686918 01 06.352+41 34 20.10         20.96GVEL003I52
     K24K01P KC2024 05 30.27814418 01 06.355+41 34 24.17         21.15GVEL003I52
     K24K01P KC2024 05 30.27942418 01 06.348+41 34 28.34         20.84GVEL003I52
     K24K01P KC2024 05 30.28744918 01 05.99 +41 34 53.0          20.8 GVEL003H21
     K24K01P KC2024 05 30.29048318 01 05.99 +41 35 02.5          20.9 GVEL003H21
     K24K01P 1C2024 05 30.97534 18 01 13.75 +42 10 52.6          21.0 VXEL003033
     K24K01P 1C2024 05 30.97701 18 01 13.75 +42 10 57.8          21.0 VXEL003033
     K24K01P 1C2024 05 30.97868 18 01 13.75 +42 11 03.1          21.0 VXEL003033
     K24K01P 1C2024 05 30.98035 18 01 13.76 +42 11 08.4          21.0 VXEL003033
     K24K01P KB2024 05 31.08169818 01 14.44 +42 16 28.4          20.3 GXEL003I93
     K24K01P KB2024 05 31.09028718 01 14.46 +42 16 56.1          20.3 GXEL003I93
     K24K01P KB2024 05 31.09889518 01 14.51 +42 17 23.2          20.4 GXEL003I93
     K24K01P KC2024 05 31.29931118 01 16.82 +42 27 55.0          21.0 GVEL003H21
     K24K01P KC2024 05 31.30220018 01 16.87 +42 28 04.1          21.0 GVEL003H21
     K24K01P KC2024 05 31.30508918 01 16.86 +42 28 13.2          21.3 GVEL003H21
     K24K01P KC2024 05 31.30971118 01 16.83 +42 28 27.6          21.4 GVEL003H21
     K24K01P  C2024 05 31.34554718 01 17.356+42 30 21.92         20.8 GVEL003H01
     K24K01P  C2024 05 31.35166618 01 17.370+42 30 41.24         20.7 GVEL003H01
     K24K01P  C2024 05 31.36026118 01 17.392+42 31 08.16         20.6 GVEL003H01
     K24K01P  C2024 05 31.36635018 01 17.406+42 31 27.24         20.6 GVEL003H01
     K24K01P KC2024 05 31.37166318 01 17.490+42 31 44.44         20.88GVEL003V06
     K24K01P KC2024 05 31.37269418 01 17.497+42 31 47.71         20.82GVEL003V06
     K24K01P KC2024 05 31.37372618 01 17.504+42 31 51.06         21.00GVEL003V06
     K24K01P KC2024 05 31.37476218 01 17.497+42 31 54.19         20.89GVEL003V06
     K24K01P 1C2024 05 31.40246518 01 17.881+42 33 16.95               LEL003658
     K24K01P 1C2024 05 31.40756918 01 17.894+42 33 33.02               LEL003658
     K24K01P 1C2024 05 31.41268518 01 17.878+42 33 49.24               LEL003658
     K24K01P 1C2024 05 31.41780118 01 17.847+42 34 05.30               LEL003658
     K24K01P KB2024 06 01.07589718 01 24.08 +43 08 36.5          19.9 GXEL003958
     K24K01P KB2024 06 01.08514718 01 24.09 +43 09 06.1          20.1 GXEL003958
     K24K01P KB2024 06 01.09423618 01 24.19 +43 09 34.0          19.8 GXEL003958

Observer details:
033 Karl Schwarzschild Observatory, Tautenburg.  Observers C. Heogner, F.
    Ludwig, M. Hartmann, B. Stecklum.  Measurer B. Stecklum.  1.34-m f/3
    Schmidt + CCD.
106 Crni Vrh.  Observer H. Mikuz.  0.60-m f/3.3 reflector + CMO.
658 National Research Council of Canada.  Observers D. D. Balam, C. E. Spratt.
    Measurers D. D. Balam, D. W. E. Green.  1.82-m Reflector + CCD.
958 Observatoire de Dax.  Observer P. Dupouy.  0.50-m f/4.5 Reflector + CMO.
G96 Mt. Lemmon Survey.  Observer T. Beuden.  Measurers T. Beuden, V. F.
    Carvajal, D. Fay, J. B. Fazekas, D. C. Fuls, A. R. Gibbs, A. D. Grauer, H.
    Groeller, J. K. Hogan, R. A. Kowalski, S. M. Larson, G. J. Leonard, D.
    Rankin, R. L. Seaman, F. C. Shelly, K. W. Wierzchos.  1.5-m reflector +
    10K CCD.
H01 Magdalena Ridge Observatory, Socorro.  Observers W. H. Ryan, E. V. Ryan.
    Measurer W. H. Ryan.  2.4-m f/8.9 Ritchey-Chretien + CCD.
H21 Astronomical Research Observatory, Westfield.  Observer R. Holmes.
    Measurers T. Linder, R. Holmes, L. Horn.  1.3-m f/4.0 astrograph + CCD.
H36 Sandlot Observatory, Scranton.  Observer G. Hug.  0.56-m f/4.8 .56 meter
    Reflector + CCD.
I52 Steward Observatory, Mt. Lemmon Station.  Observer V. F. Carvajal.
    Measurers T. Beuden, V. F. Carvajal, D. Fay, J. B. Fazekas, D. C. Fuls, A.
    R. Gibbs, A. D. Grauer, H. Groeller, J. K. Hogan, R. A. Kowalski, S. M.
    Larson, G. J. Leonard, D. Rankin, R. L. Seaman, F. C. Shelly, K. W.
    Wierzchos.  1.0-m prime focus + CCD.
I93 St Pardon de Conques.  Observer F. Losse.  0.40-m f/3.7 reflector + CMO.
V06 Catalina Sky Survey-Kuiper.  Observer V. F. Carvajal.  Measurers T.
    Beuden, V. F. Carvajal, D. Fay, J. B. Fazekas, D. C. Fuls, A. R. Gibbs, A.
    D. Grauer, H. Groeller, J. K. Hogan, R. A. Kowalski, S. M. Larson, G. J.
    Leonard, D. Rankin, R. L. Seaman, F. C. Shelly, K. W. Wierzchos.  1.55-m
    reflector + 1K CCD.
Z84 Calar Alto-Schmidt.  Observers F. Ocana, R. Kresken, M. Micheli, L.
    Conversi.  Measurers F. Ocana, M. Micheli.  0.8-m f/3 Schmidt + CCD.

Orbital elements:
2024 KP1                                                 Earth MOID = 0.1243 AU
Epoch 2024 Mar. 31.0 TT = JDT 2460400.5                 MPC                     
M 298.85178              (2000.0)            P               Q                  
n   0.41753720     Peri.  161.16006     +0.97804895     +0.20008927             
a   1.7728525      Node   188.00196     -0.19934896     +0.97975728             
e   0.5184981      Incl.   24.70303     +0.06066496     -0.00632169             
P   2.36           H   19.94          G   0.15           U   9                  
Residuals in seconds of arc
240529 G96  0.2-  0.2-    240530 H01  0.0   0.1-    240531 H21  0.4-  0.1-
240529 G96  0.1-  0.1+    240530 H01  0.0   0.1-    240531 H01  0.1+  0.0
240529 G96  0.0   0.0     240530 I52  0.3+  0.2-    240531 H01  0.0   0.1+
240529 G96  0.3-  0.3-    240530 I52  0.1-  0.0     240531 H01  0.0   0.0
240529 G96  0.2-  0.2-    240530 I52  0.1-  0.0     240531 H01  0.0   0.1-
240529 G96  0.1+  0.2+    240530 I52  0.3-  0.1+    240531 V06  0.0   0.0
240529 G96  0.0   0.5+    240530 H21  0.2+  0.1+    240531 V06  0.0   0.0
240529 G96  0.2-  0.4-    240530 H21  0.1+  0.1+    240531 V06  0.1+  0.1+
240529 106  0.2-  0.5+    240530 033  0.1+  0.1+    240531 V06  0.0   0.0
240529 106  0.1-  1.4-    240530 033  0.0   0.0     240531 658  0.5+  0.2-
240529 106  0.2-  0.0     240530 033  0.1-  0.0     240531 658  0.4+  0.2-
240529 106  0.0   0.3+    240530 033  0.1-  0.0     240531 658  0.0   0.1-
240530 Z84  0.0   0.1+    240531 I93  0.0   0.7-    240531 658  0.6-  0.1-
240530 Z84  0.0   0.0     240531 I93  0.2-  0.1+    240601 958  0.2-  0.2-
240530 H36  0.3-  1.1-    240531 I93  0.0   0.2+    240601 958  0.3-  0.3+
240530 H36  0.4-  0.6-    240531 H21  0.1-  0.0     240601 958  0.5+  0.3-
240530 H01  0.1-  0.0     240531 H21  0.3+  0.0
240530 H01  0.1-  0.1+    240531 H21  0.1+  0.0

Ephemeris:
2024 KP1                 a,e,i = 1.77, 0.52, 25                  q = 0.8536
Date    TT    R. A. (2000) Decl.     Delta      r    Elong.  Phase     V
2024 05 02    17 46 19.9 +18 35 23   0.7692  1.5614   122.4    33.0    21.7
...
2024 05 17    17 56 25.8 +30 11 35   0.6475  1.4482   120.0    37.2    21.3
...
2024 05 25    17 59 44.3 +36 58 58   0.5985  1.3864   116.4    40.9    21.1
...
2024 05 31    18 01 13.7 +42 12 10   0.5680  1.3396   112.7    44.3    21.0
2024 06 01    18 01 23.5 +43 04 36   0.5634  1.3318   112.0    44.9    21.0
2024 06 02    18 01 31.8 +43 57 01   0.5589  1.3240   111.3    45.5    21.0
...
2024 06 08    18 01 52.0 +49 10 24   0.5342  1.2770   106.9    49.5    21.0
...
2024 06 16    18 01 07.5 +56 01 31   0.5061  1.2145   100.5    55.3    20.9
...
2024 07 01    17 56 43.4 +68 37 55   0.4601  1.1005    87.9    67.4    20.8

A. U. Tomatic                (C) Copyright 2024 MPC           M.P.E.C. 2024-L03





More information about the Iaude mailing list